Location: Medlow Airstrip Trail, Medlow Bath NSW 2780, Australia
(33.6682°S, 150.3233°E)
Time: 09:51:12
(UTC+11:00)

Explorer 11/Cluster Stage 4 - Pass Details

Date: 27 September 2019
Orbit: 467 x 1259 km, 28.8° (Epoch: 17 October)

Event Time Altitude Azimuth Distance (km) Brightness Sun altitude
Rises 12:16:25 0° 273° (W) 3,276 9.9 57.2°
Reaches altitude 10° 12:19:05 10° 285° (WNW) 2,477 9.5 57.1°
Maximum altitude 12:24:04 27° 341° (NNW) 1,766 9.6 56.8°
Drops below altitude 10° 12:29:54 10° 35° (NE) 2,936 9.9 56.5°
Sets 12:33:22 0° 46° (NE) 4,004 10.4 56.2°
